TimeIST,TemperatureF,Dew PointF,Humidity,Sea Level PressureIn,VisibilityMPH,Wind Direction,Wind SpeedMPH,Gust SpeedMPH,PrecipitationIn,Events,Conditions,WindDirDegrees,DateUTC
12:00 AM,46.4,46.4,100,30.21,5.6,NNW,8.1,-,N/A,Rain,Light Rain,330,2013-04-24 23:00:00
12:30 AM,46.4,46.4,100,30.21,5.6,NNW,5.8,-,N/A,Rain,Light Rain,340,2013-04-24 23:30:00
1:00 AM,46,46,97,30.21,5,North,4.5,,,Rain,Light Rain,350,2013-04-25 00:00:00
1:00 AM,46.4,46.4,100,30.18,5.0,North,4.6,-,N/A,Rain,Light Rain,350,2013-04-25 00:00:00
1:30 AM,46.4,46.4,100,30.18,5.0,NNW,4.6,-,N/A,Rain,Light Rain,340,2013-04-25 00:30:00
2:00 AM,46.4,44.6,93,30.18,4.3,NNW,6.9,-,N/A,Rain,Light Rain,330,2013-04-25 01:00:00
2:30 AM,44.6,44.6,100,30.18,3.1,NNW,9.2,-,N/A,Rain,Light Rain,330,2013-04-25 01:30:00
3:00 AM,44.6,44.6,100,30.15,3.7,NNW,10.4,-,N/A,Rain,Light Rain,330,2013-04-25 02:00:00
4:00 AM,44.6,44.6,100,30.15,5.6,NNW,10.4,-,N/A,Rain,Light Rain,340,2013-04-25 03:00:00
4:30 AM,44.6,42.8,93,30.15,2.5,NNW,10.4,-,N/A,Rain,Light Rain,330,2013-04-25 03:30:00
5:00 AM,44.6,42.8,93,30.15,2.5,NNW,10.4,-,N/A,Rain,Light Rain,330,2013-04-25 04:00:00
5:30 AM,44.6,42.8,93,30.15,5.6,North,8.1,-,N/A,Rain,Light Rain,350,2013-04-25 04:30:00
6:00 AM,44.6,42.8,93,30.15,6.2,North,4.6,-,N/A,Rain,Light Rain,350,2013-04-25 05:00:00
6:30 AM,44.6,42.8,93,30.15,6.2,NW,4.6,-,N/A,Rain,Light Rain,310,2013-04-25 05:30:00
7:00 AM,44,43,95,30.17,9,NNW,6.7,,,Rain,Light Rain,330,2013-04-25 06:00:00
7:00 AM,42.8,42.8,100,30.15,6.2,NNW,5.8,-,N/A,Rain,Light Rain,330,2013-04-25 06:00:00
7:30 AM,44.6,42.8,93,30.18,6.2,NW,8.1,-,N/A,,Mostly Cloudy,320,2013-04-25 06:30:00
8:00 AM,44.6,42.8,93,30.18,6.2,NW,9.2,-,N/A,,Mostly Cloudy,320,2013-04-25 07:00:00
8:30 AM,44.6,42.8,93,30.18,6.2,NW,6.9,-,N/A,,Light Drizzle,310,2013-04-25 07:30:00
9:00 AM,44.6,42.8,93,30.21,6.2,WNW,9.2,-,N/A,,Mostly Cloudy,300,2013-04-25 08:00:00
9:30 AM,46.4,42.8,87,30.21,6.2,WNW,10.4,-,N/A,,Mostly Cloudy,300,2013-04-25 08:30:00
10:00 AM,46.4,42.8,87,30.21,6.2,NW,9.2,-,N/A,,Mostly Cloudy,310,2013-04-25 09:00:00
10:30 AM,48.2,42.8,82,30.21,6.2,WNW,10.4,-,N/A,,Mostly Cloudy,300,2013-04-25 09:30:00
11:00 AM,50.0,42.8,76,30.21,6.2,WNW,11.5,-,N/A,,Mostly Cloudy,300,2013-04-25 10:00:00
11:30 AM,50.0,44.6,82,30.21,6.2,WNW,11.5,-,N/A,,Mostly Cloudy,290,2013-04-25 10:30:00
12:00 PM,48.2,42.8,82,30.21,6.2,WNW,15.0,-,N/A,,Mostly Cloudy,290,2013-04-25 11:00:00
12:30 PM,50.0,39.2,66,30.21,6.2,WNW,15.0,-,N/A,,Scattered Clouds,290,2013-04-25 11:30:00
1:00 PM,51,38,50,30.22,19,WNW,15.7,,,,Partly Cloudy,290,2013-04-25 12:00:00
1:00 PM,51.8,37.4,58,30.21,6.2,WNW,15.0,-,N/A,,Partly Cloudy,290,2013-04-25 12:00:00
1:30 PM,51.8,37.4,58,30.21,6.2,WNW,16.1,-,N/A,,Scattered Clouds,300,2013-04-25 12:30:00
2:00 PM,51.8,39.2,62,30.21,6.2,WNW,15.0,-,N/A,,Scattered Clouds,300,2013-04-25 13:00:00
2:30 PM,53.6,39.2,58,30.21,6.2,West,17.3,-,N/A,,Scattered Clouds,280,2013-04-25 13:30:00
3:00 PM,51.8,39.2,62,30.21,6.2,West,18.4,-,N/A,,Scattered Clouds,280,2013-04-25 14:00:00
3:30 PM,51.8,39.2,62,30.21,6.2,WNW,17.3,-,N/A,,Scattered Clouds,290,2013-04-25 14:30:00
4:00 PM,53.6,39.2,58,30.21,6.2,WNW,17.3,28.8,N/A,,Scattered Clouds,290,2013-04-25 15:00:00
4:30 PM,53.6,39.2,58,30.21,6.2,WNW,17.3,-,N/A,,Scattered Clouds,290,2013-04-25 15:30:00
5:00 PM,51.8,37.4,58,30.21,6.2,West,17.3,-,N/A,,Scattered Clouds,270,2013-04-25 16:00:00
5:30 PM,51.8,37.4,58,30.21,6.2,West,18.4,-,N/A,,Partly Cloudy,280,2013-04-25 16:30:00
6:00 PM,51.8,35.6,54,30.21,6.2,WNW,16.1,-,N/A,,Partly Cloudy,290,2013-04-25 17:00:00
6:30 PM,51.8,39.2,62,30.21,6.2,WNW,17.3,-,N/A,,Partly Cloudy,290,2013-04-25 17:30:00
7:00 PM,51,39,54,30.23,19,West,15.7,,,,Scattered Clouds,280,2013-04-25 18:00:00
7:00 PM,50.0,39.2,66,30.21,6.2,West,16.1,-,N/A,,Partly Cloudy,280,2013-04-25 18:00:00
7:30 PM,50.0,37.4,62,30.21,6.2,West,17.3,-,N/A,,Partly Cloudy,280,2013-04-25 18:30:00
8:00 PM,48.2,37.4,66,30.21,6.2,West,16.1,-,N/A,,Partly Cloudy,270,2013-04-25 19:00:00
8:30 PM,46.4,37.4,71,30.21,6.2,West,15.0,-,N/A,,Partly Cloudy,270,2013-04-25 19:30:00
9:00 PM,46.4,37.4,71,30.21,6.2,West,11.5,-,N/A,,Partly Cloudy,270,2013-04-25 20:00:00
9:30 PM,44.6,37.4,76,30.24,6.2,West,12.7,-,N/A,,Partly Cloudy,270,2013-04-25 20:30:00
10:00 PM,44.6,39.2,81,30.24,6.2,West,12.7,-,N/A,,Partly Cloudy,270,2013-04-25 21:00:00
10:30 PM,44.6,39.2,81,30.24,6.2,West,15.0,-,N/A,,Partly Cloudy,280,2013-04-25 21:30:00
11:00 PM,42.8,37.4,81,30.24,6.2,WNW,6.9,-,N/A,,Partly Cloudy,300,2013-04-25 22:00:00
11:30 PM,42.8,37.4,81,30.24,6.2,West,5.8,-,N/A,,Partly Cloudy,270,2013-04-25 22:30:00